Flag for Portugal Weather past 2 weeks in Beja, Portugal

Now
86 °F

Passing clouds.


Feels Like: 83 °F
Forecast: 55 / 84 °F
Wind: 16 mph from Northwest

Location: Beja Airport

Current Time: May 29, 2015 at 7:53:01 PM

Latest Report: May 29, 2015 at 7:00 PM


Visibility: N/A

Pressure: 29.92 "Hg

Humidity: 27%

Dew point: 48 °F

Location of BejaLocation

Historic Weather in Beja — Graph

°F

Beja temperature yesterday

Maximum temperature yesterday: 91 °F (at 3:00 PM)
Minimum temperature yesterday: 61 °F (at 4:00 AM)
Average temperature yesterday: 76 °F

Past Weeks' High & Low Weather Summary

 TemperatureHumidityPressure
High91 °F (May 17, 4:00 PM)94% (May 19, 3:00 AM)30.24 "Hg (May 19, 3:00 AM)
Low48 °F (May 20, 7:00 AM)11% (May 23, 4:00 PM)29.86 "Hg (May 18, 5:00 PM)
Average71 °F43%30.03 "Hg
* Reported May 14 6:00 PM — May 29 6:00 PM, Beja, Weather by CustomWeather, © 2015

Note: Actual official high and low records may vary slightly from our data, if they occured in-between our weather recording intervals... More about our weather records

Advertising

Beja weather history for previous 24 hours

 ConditionsComfort  
Time TempWeatherWind HumidityBarometerVisibility
6:00 PM
Fri, May 29
88 °FThunderstorms. Passing clouds.13 mph24%29.92 "HgN/A
5:00 PM90 °FThunderstorms. Passing clouds.10 mph21%29.92 "HgN/A
4:00 PM88 °FPassing clouds.8 mph22%29.92 "HgN/A
3:00 PM88 °FPassing clouds.7 mph22%29.95 "HgN/A
2:00 PM86 °FPassing clouds.7 mph27%29.95 "HgN/A
1:00 PM84 °FPassing clouds.7 mph29%29.95 "HgN/A
12:00 PM81 °FPassing clouds.7 mph32%29.95 "HgN/A
11:00 AM77 °FPassing clouds.8 mph36%29.98 "HgN/A
10:00 AM73 °FPassing clouds.9 mph44%29.98 "HgN/A
9:00 AM68 °FPassing clouds.8 mph56%29.95 "HgN/A
8:00 AM61 °FPassing clouds.2 mph77%29.95 "HgN/A
7:00 AM61 °FPassing clouds.3 mph77%29.95 "HgN/A
6:00 AM61 °FPassing clouds.5 mph72%29.92 "HgN/A
5:00 AM61 °FClear.8 mph77%29.92 "Hg10 mi
4:00 AM61 °FClear.9 mph77%29.92 "Hg10 mi
3:00 AM64 °FClear.1 mph64%29.92 "Hg10 mi
2:00 AM64 °FPassing clouds.7 mph60%29.92 "HgN/A
1:00 AM66 °FPassing clouds.3 mph56%29.92 "HgN/A
12:00 AM70 °FPassing clouds.3 mph46%29.95 "HgN/A
11:00 PM
Thu, May 28
72 °FPassing clouds.8 mph44%29.92 "HgN/A
10:00 PM73 °FPassing clouds.10 mph36%29.92 "HgN/A
9:00 PM77 °FPassing clouds.8 mph30%29.95 "HgN/A
8:00 PM81 °FPassing clouds.13 mph24%29.92 "HgN/A
7:00 PM84 °FScattered showers. Passing clouds.17 mph22%29.92 "HgN/A
Weather by CustomWeather, © 2015

See weather overviewHow to use our weather pages